Vero Beach, FL

11:54 PM EDT on September 27, 2016 (GMT -0400)
Vero Beach Municipal

Weather History for KVRB - March, 2013

Change the Weather History Date:

Wednesday, March 20, 2013

  Actual Average Record
Temperature  
Mean Temperature 71 °F 68 °F  
Max Temperature 84 °F 78 °F 93 °F (2003)
Min Temperature 57 °F 58 °F 41 °F (1981)
Degree Days  
Heating Degree Days 0 1  
Month to date heating degree days 118 44  
Since 1 July heating degree days 346 429  
Cooling Degree Days 6 4  
Month to date cooling degree days 30 80  
Year to date cooling degree days 265 219  
Growing Degree Days 19 (Base 50)    
Moisture  
Dew Point 60 °F    
Average Humidity 73    
Maximum Humidity 100    
Minimum Humidity 45    
Precipitation  
Precipitation 0.00 in 0.15 in 1.63 in (1998)
Month to date precipitation 0.05 2.59  
Year to date precipitation 2.60 7.76  
Sea Level Pressure  
Sea Level Pressure 29.92 in    
Wind  
Wind Speed 7 mph (WSW)    
Max Wind Speed 23 mph    
Max Gust Speed 31 mph    
Visibility 5 miles    
Events Fog    
T = Trace of Precipitation, MM = Missing Value Source: NWS Daily Summary

Daily Weather History Graph

Daily Weather History Graph

Search for Another Location

Airport or City:

Trip Planner

Search our weather history database for the weather conditions in past years. The results will help you decide how hot, cold, wet, or windy it might be!

Date:

Astronomy

Mar. 20, 2013 Rise Set
Actual Time 7:25 AM EDT 7:33 PM EDT
Civil Twilight 7:01 AM EDT 7:56 PM EDT
Nautical Twilight 6:34 AM EDT 8:23 PM EDT
Astronomical Twilight 6:07 AM EDT 8:51 PM EDT
Moon 1:34 PM EDT (3/20) 2:36 AM EDT (3/20)
Length of Visible Light 12h 54m
Length of Day
12h 07m
First Quarter, 59% of the Moon is Illuminated
Mar 20
First Quarter
Mar 27
Full
Apr 3
Last Quarter
Apr 10
New
Apr 18
First Quarter

Hourly Weather History & Observations

Time (EDT) Temp. Heat Index Dew Point Humidity Pressure Visibility Wind Dir Wind Speed Gust Speed Precip Events Conditions
12:00 AM 62.6 °F - 60.8 °F 94% 29.98 in 1.8 mi Calm Calm - N/A   Clear
12:08 AM 60.8 °F - 59.0 °F 94% 29.97 in 0.8 mi Calm Calm - N/A   Clear
12:20 AM 64.4 °F - 62.6 °F 94% 29.98 in 0.2 mi Calm Calm - N/A Fog Fog
12:26 AM 64.4 °F - 62.6 °F 94% 29.98 in 1.0 mi WSW 5.8 mph - N/A   Scattered Clouds
12:29 AM 64.4 °F - 62.6 °F 94% 29.98 in 5.0 mi WSW 5.8 mph - N/A   Mostly Cloudy
12:53 AM 64.9 °F - 62.1 °F 90% 29.98 in 9.0 mi West 5.8 mph - N/A   Overcast
1:53 AM 63.0 °F - 62.1 °F 97% 29.97 in 6.0 mi Calm Calm - N/A   Partly Cloudy
2:53 AM 62.1 °F - 61.0 °F 96% 29.95 in 5.0 mi Calm Calm - N/A   Clear
3:17 AM 62.6 °F - 60.8 °F 94% 29.94 in 0.8 mi Calm Calm - N/A   Clear
3:28 AM 62.6 °F - 60.8 °F 94% 29.93 in 0.2 mi Calm Calm - N/A Fog Fog
3:44 AM 60.8 °F - 60.8 °F 100% 29.93 in 0.2 mi Calm Calm - N/A Fog Fog
3:53 AM 61.0 °F - 61.0 °F 100% 29.92 in 0.2 mi Calm Calm - N/A Fog Fog
4:03 AM 60.8 °F - 59.0 °F 94% 29.92 in 0.2 mi Calm Calm - N/A Fog Fog
4:40 AM 60.8 °F - 59.0 °F 94% 29.91 in 0.8 mi Calm Calm - N/A   Clear
4:53 AM 57.9 °F - 57.9 °F 100% 29.91 in 0.2 mi Calm Calm - N/A Fog Fog
5:10 AM 57.2 °F - 55.4 °F 94% 29.92 in 0.5 mi Calm Calm - N/A Fog Fog
5:18 AM 57.2 °F - 57.2 °F 100% 29.93 in 0.2 mi Calm Calm - N/A Fog Fog
5:24 AM 59.0 °F - 57.2 °F 94% 29.93 in 0.5 mi Calm Calm - N/A Fog Fog
5:29 AM 60.8 °F - 59.0 °F 94% 29.93 in 2.5 mi Calm Calm - N/A   Mostly Cloudy
5:37 AM 60.8 °F - 59.0 °F 94% 29.92 in 8.0 mi Calm Calm - N/A   Overcast
5:53 AM 60.1 °F - 57.9 °F 93% 29.93 in 7.0 mi Calm Calm - N/A   Overcast
5:59 AM 60.8 °F - 57.2 °F 88% 29.93 in 1.5 mi Calm Calm - N/A   Overcast
6:09 AM 59.0 °F - 57.2 °F 94% 29.93 in 0.2 mi Calm Calm - N/A Fog Fog
6:27 AM 59.0 °F - 57.2 °F 94% 29.94 in 0.8 mi Calm Calm - N/A   Overcast
6:35 AM 60.8 °F - 57.2 °F 88% 29.94 in 2.0 mi Calm Calm - N/A   Overcast
6:41 AM 60.8 °F - 59.0 °F 94% 29.94 in 5.0 mi Calm Calm - N/A   Overcast
6:53 AM 61.0 °F - 59.0 °F 93% 29.94 in 5.0 mi Calm Calm - N/A   Mostly Cloudy
7:53 AM 63.0 °F - 61.0 °F 93% 29.96 in 6.0 mi Calm Calm - N/A   Scattered Clouds
8:53 AM 68.0 °F - 66.0 °F 93% 29.95 in 7.0 mi South 5.8 mph - N/A   Clear
9:53 AM 70.0 °F - 66.9 °F 90% 29.97 in 9.0 mi Calm Calm - N/A   Partly Cloudy
10:53 AM 73.0 °F - 66.0 °F 79% 29.96 in 10.0 mi South 4.6 mph - N/A   Scattered Clouds
11:53 AM 75.0 °F - 64.9 °F 71% 29.96 in 10.0 mi SSE 5.8 mph - N/A   Mostly Cloudy
12:53 PM 81.0 °F 82.5 °F 64.0 °F 56% 29.92 in 10.0 mi South 10.4 mph - N/A   Clear
1:53 PM 81.0 °F 82.2 °F 63.0 °F 54% 29.88 in 10.0 mi South 8.1 mph - N/A   Scattered Clouds
2:53 PM 81.0 °F 81.7 °F 61.0 °F 50% 29.85 in 10.0 mi WSW 10.4 mph - N/A   Mostly Cloudy
3:53 PM 80.1 °F 80.7 °F 59.0 °F 48% 29.83 in 10.0 mi West 11.5 mph - N/A   Overcast
4:53 PM 80.1 °F 80.4 °F 57.0 °F 45% 29.81 in 10.0 mi West 12.7 mph - N/A   Partly Cloudy
5:53 PM 78.1 °F - 55.9 °F 46% 29.81 in 10.0 mi West 15.0 mph - N/A   Clear
6:53 PM 75.0 °F - 57.0 °F 53% 29.81 in 10.0 mi West 9.2 mph - N/A   Partly Cloudy
7:53 PM 73.0 °F - 57.9 °F 59% 29.85 in 10.0 mi West 10.4 mph - N/A   Partly Cloudy
8:53 PM 72.0 °F - 57.0 °F 59% 29.86 in 10.0 mi West 13.8 mph 20.7 mph N/A   Clear
9:53 PM 68.0 °F - 59.0 °F 73% 29.89 in 10.0 mi West 16.1 mph 26.5 mph N/A   Mostly Cloudy
10:53 PM 66.9 °F - 60.1 °F 79% 29.87 in 10.0 mi West 11.5 mph - N/A   Clear
11:53 PM 64.9 °F - 60.1 °F 84% 29.85 in 10.0 mi West 8.1 mph - N/A   Scattered Clouds